Flag for Puerto Rico Weather past 2 weeks in Caguas, Puerto Rico

78 °F

Passing clouds.

Feels Like: 81 °F
Forecast: 69 / 85 °F
Wind: No wind

Location: Luis Munoz Marin

Current Time: Nov 26, 2015 at 1:13:46 AM

Latest Report: Nov 25, 2015 at 11:56 PM

Visibility: 10 mi

Pressure: 30.00 "Hg

Humidity: 82%

Dew point: 72 °F

Location of CaguasLocation

Historic Weather in Caguas — Graph


Caguas temperature yesterday

Maximum temperature yesterday: 86 °F (at 11:56 AM)
Minimum temperature yesterday: 75 °F (at 5:56 AM)
Average temperature yesterday: 80 °F

Past Weeks' High & Low Weather Summary

High89 °F (Nov 24, 1:56 PM)94% (Nov 11, 5:56 AM)30.08 "Hg (Nov 11, 5:56 AM)
Low73 °F (Nov 22, 4:56 AM)46% (Nov 24, 1:56 PM)29.84 "Hg (Nov 24, 2:56 PM)
Average80 °F75%29.95 "Hg
* Reported Nov 10 11:56 PM — Nov 25 11:56 PM, Caguas, Weather by CustomWeather, © 2015

Note: Actual official high and low records may vary slightly from our data, if they occured in-between our weather recording intervals... More about our weather records


Caguas weather history for previous 24 hours

Time TempWeatherWind HumidityBarometerVisibility
11:56 PM
Wed, Nov 25
78 °FPassing clouds.No wind82%30.00 "Hg10 mi
10:56 PM79 °FPassing clouds.No wind79%29.99 "Hg10 mi
9:56 PM79 °FPassing clouds.No wind79%29.99 "Hg10 mi
8:56 PM80 °FPassing clouds.No wind76%29.98 "Hg10 mi
7:56 PM80 °FPassing clouds.No wind79%29.97 "Hg10 mi
6:56 PM80 °FPassing clouds.3 mph79%29.96 "Hg10 mi
5:56 PM80 °FScattered clouds.8 mph79%29.94 "Hg10 mi
4:56 PM82 °FScattered clouds.5 mph74%29.93 "Hg10 mi
3:56 PM81 °FScattered clouds.3 mph74%29.92 "Hg10 mi
2:56 PM83 °FScattered clouds.12 mph72%29.91 "Hg10 mi
1:56 PM84 °FScattered clouds.12 mph70%29.92 "Hg10 mi
12:56 PM85 °FScattered clouds.13 mph65%29.94 "Hg10 mi
11:56 AM86 °FScattered clouds.9 mph57%29.96 "Hg10 mi
10:56 AM85 °FScattered clouds.7 mph61%29.97 "Hg10 mi
9:56 AM83 °FScattered clouds.8 mph68%29.98 "Hg10 mi
8:56 AM82 °FScattered clouds.No wind70%29.98 "Hg10 mi
7:56 AM78 °FScattered clouds.No wind79%29.96 "Hg10 mi
6:56 AM75 °FPassing clouds.No wind88%29.94 "Hg10 mi
5:56 AM75 °FPassing clouds.No wind88%29.92 "Hg10 mi
4:56 AM76 °FPassing clouds.No wind85%29.91 "Hg10 mi
3:56 AM76 °FPassing clouds.No wind85%29.91 "Hg10 mi
2:56 AM76 °FPassing clouds.No wind85%29.91 "Hg10 mi
1:56 AM76 °FPassing clouds.No wind85%29.93 "Hg10 mi
Weather by CustomWeather, © 2015

See weather overviewHow to use our weather pages